SCP
0 0 0 0 0 0 0 0 0 0 0 0 0 0 0 0 0 0 0 0 0 0 0 0 0 0 0 0 0 0 0 0 0 0 0 0 0 0 0 0 0 0 0
0 0 0 0 0 0 0 0 0 0 0 0 0 0 0 0 0 0 0 0 0 0 0 0 0 0 0 0 0 0 0 0 0 0 0 0 0 0 0 0 0 0 0
0 0 0 0 0 0 0 0 0 0 0 0 0 0 0 0 0 0 0 0 0 0 0 0 0 0 0 0 0 0 0 0 0 0 0 0 0 0 0 0 0 0 0
0 0 0 0 0 0 0 0 0 0 0 0 0 0 0 0 0 0 0 0 0 0 0 0 0 0 0 0 0 0 0 0 0 0 0 0 0 0 0 0 0 0 0
0 0 0 0 0 0 0 0 0 0 0 0 0 0 0 0 0 0 0 0 0 0 0 0 0 0 0 0 0 0 0 0 0 0 0 0 0 0 0 0 0 0 0
0 0 0 0 0 0 0 0 0 0 0 0 0 0 0 0 0 0 0 0 0 0 0 0 0 0 0 0 0 0 0 0 0 0 0 0 0 0 0 0 0 0 0
0 0 0 0 0 0 0 0 0 0 0 0 0 0 0 0 0 0 0 0 0 0 0 0 0 0 0 0 0 0 0 0 0 0 0 0 0 0 0 0 0 0 0
0 0 0 0 0 0 0 0 0 0 0 0 0 0 0 0 0 0 0 0 0 0 0 0 0 0 0 0 0 0 0 0 0 0 0 0 0 0 0 0 0 0 0
0 0 0 0 0 0 0 0 0 0 0 0 0 0 0 0 0 0 0 0 0 0 0 0 0 0 0 0 0 0 0 0 0 0 0 0 0 0 0 0 0 0 0
0 0 0 0 0 0 0 0 0 0 0 0 0 0 0 0 0 0 0 0 0 0 0 0 0 0 0 0 0 0 0 0 0 0 0 0 0 0 0 0 0 0 0
0 0 0 0 0 0 0 0 0 0 0 0 0 0 0 0 0 0 0 0 0 0 0 0 0 0 0 0 0 0 0 0 0 0 0 0 0 0 0 0 0 0 0
0 0 0 0 0 0 0 0 0 0 0 0 0 0 0 0 0 0 0 0 0 0 0 0 0 0 0 0 0 0 0 0 0 0 0 0 0 0 0 0 0 0 0
0 0 0 0 0 0 0 0 0 0 0 0 0 0 0 0 0 0 0 0 0 0 0 0 0 0 0 0 0 0 0 0 0 0 0 0 0 0 0 0 0 0 0
0 0 0 0 0 0 0 0 0 0 0 0 0 0 0 0 0 0 0 0 0 0 0 0 0 0 0 0 0 0 0 0 0 0 0 0 0 0 0 0 0 0 0
0 0 0 0 0 0 0 0 0 0 0 0 0 0 0 0 0 0 0 0 0 0 0 0 0 0 0 0 0 0 0 0 0 0 0 0 0 0 0 0 0 0 0
0 0 0 0 0 0 0 0 0 0 0 0 0 0 0 0 0 0 0 0 0 0 0 0 0 0 0 0 0 0 0 0 0 0 0 0 0 0 0 0 0 0 0
0 0 0 0 0 0 0 0 0 0 0 0 0 0 0 0 0 0 0 0 0 0 0 0 0 0 0 0 0 0 0 0 0 0 0 0 0 0 0 0 0 0 0
0 0 0 0 0 0 0 0 0 0 0 0 0 0 0 0 0 0 0 0 0 0 0 0 0 0 0 0 0 0 0 0 0 0 0 0 0 0 0 0 0 0 0
0 0 0 0 0 0 0 0 0 0 0 0 0 0 0 0 0 0 0 0 0 0 0 0 0 0 0 0 0 0 0 0 0 0 0 0 0 0 0 0 0 0 0
0 0 0 0 0 0 0 0 0 0 0 0 0 0 0 0 0 0 0 0 0 0 0 0 0 0 0 0 0 0 0 0 0 0 0 0 0 0 0 0 0 0 0
0 0 0 0 0 0 0 0 0 0 0 0 0 0 0 0 0 0 0 0 0 0 0 0 0 0 0 0 0 0 0 0 0 0 0 0 0 0 0 0 0 0 0
0 0 0 0 0 0 0 0 0 0 0 0 0 0 0 0 0 0 0 0 0 0 0 0 0 0 0 0 0 0 0 0 0 0 0 0 0 0 0 0 0 0 0
0 0 0 0 0 0 0 0 0 0 0 0 0 0 0 0 0 0 0 0 0 0 0 0 0 0 0 0 0 0 0 0 0 0 0 0 0 0 0 0 0 0 0
0 0 0 0 0 0 0 0 0 0 0 0 0 0 0 0 0 0 0 0 0 0 0 0 0 0 0 0 0 0 0 0 0 0 0 0 0 0 0 0 0 0 0
0 0 0 0 0 0 0 0 0 0 0 0 0 0 0 0 0 0 0 0 0 0 0 0 0 0 0 0 0 0 0 0 0 0 0 0 0 0 0 0 0 0 0
0 0 0 0 0 0 0 0 0 0 0 0 0 0 0 0 0 0 0 0 0 0 0 0 0 0 0 0 0 0 0 0 0 0 0 0 0 0 0 0 0 0 0
Wind_Speed
11 10 10 9 8 7 5 3 1 1 1 1 2 3 3 4 3 2 3 4 4 5 5 5 5 5 5 7 8 7 9 8 7 9 10 9 9 10 10 9 11 13 13
10 11 11 10 9 8 6 4 2 1 1 1 2 3 4 4 4 2 3 4 5 5 6 5 5 6 6 7 8 8 7 8 7 8 12 11 10 7 11 10 11 13 11
12 13 12 11 9 8 7 4 3 1 1 0 2 3 3 3 3 3 3 4 5 5 5 5 5 6 6 6 8 8 8 9 9 6 7 10 12 12 7 9 11 11 11
11 12 14 12 10 8 7 5 3 3 2 1 2 3 3 4 4 3 4 5 5 6 6 6 6 6 6 7 8 8 8 10 10 8 6 8 10 12 13 7 7 11 11
9 11 13 12 10 9 7 5 4 4 3 2 2 3 4 3 4 4 5 5 5 6 6 6 5 6 6 7 8 9 9 8 10 10 9 9 9 9 10 13 10 9 8
8 9 11 10 9 9 7 6 5 5 4 3 3 3 4 5 6 6 5 5 4 5 6 6 6 7 7 7 8 9 10 9 11 10 9 9 9 9 8 10 11 11 10
9 9 11 11 10 10 8 7 6 5 4 3 3 4 4 5 5 5 5 6 5 5 6 7 6 6 7 8 8 9 10 10 11 11 9 8 8 8 8 9 11 12 11
8 9 11 10 10 10 9 8 7 5 4 4 4 4 4 3 3 5 5 5 5 5 6 7 7 8 8 10 8 8 9 9 10 12 11 9 8 7 7 8 9 12 11
9 9 10 10 10 10 10 8 7 6 5 4 4 4 4 4 5 5 5 5 5 6 7 7 8 8 8 9 8 7 9 9 9 10 10 8 7 7 7 7 8 9 12
9 10 10 10 9 9 8 8 7 6 5 4 4 4 4 5 5 5 6 6 6 6 7 8 8 8 8 8 8 7 8 9 9 8 9 9 7 7 6 7 7 8 9
11 10 10 9 9 8 8 8 7 6 5 5 4 4 4 5 5 6 6 6 6 6 7 8 8 8 9 8 7 8 9 9 9 9 10 10 9 8 7 7 7 7 7
10 10 10 10 9 9 8 8 7 6 6 5 4 4 5 5 6 6 6 6 6 7 7 8 8 9 9 8 8 9 10 9 9 10 10 10 9 9 8 7 8 7 7
10 10 10 10 10 9 9 8 8 7 6 5 4 5 5 5 6 6 6 6 7 7 7 7 8 9 9 8 8 8 8 8 8 9 10 10 10 9 8 8 7 6 7
11 11 11 10 10 10 9 8 8 7 6 5 4 5 5 5 6 6 6 7 7 7 8 8 8 9 9 8 8 8 8 8 8 8 8 9 9 9 9 8 7 6 6
11 12 12 11 10 10 9 9 8 7 6 5 5 5 5 5 5 6 7 7 7 9 8 8 8 8 8 8 9 7 7 8 8 8 8 9 13 16 13 11 8 7 5
13 13 13 12 12 12 10 9 8 7 6 5 5 5 5 5 6 6 7 7 8 8 8 8 8 9 8 17 21 14 6 7 8 8 8 9 10 15 18 20 19 15 9
12 13 14 13 12 12 11 10 8 6 6 5 5 5 5 6 6 7 7 7 8 7 8 8 8 9 11 21 21 21 10 7 7 8 7 8 9 13 8 12 16 14 18
11 13 13 12 10 10 9 9 8 7 6 6 6 6 6 7 6 6 7 7 7 7 7 7 8 9 12 21 21 21 9 7 8 8 8 7 8 10 10 7 7 7 8
10 11 11 11 10 10 10 9 8 7 7 7 7 7 6 6 6 6 7 6 6 7 7 7 8 9 11 19 21 21 7 8 9 8 7 7 7 14 17 7 7 8 7
8 9 10 10 11 11 11 11 9 9 9 9 8 6 5 5 6 7 6 6 6 7 7 7 7 8 9 17 21 21 6 8 7 6 6 11 12 15 16 6 5 8 8
8 9 11 11 12 12 12 11 10 11 10 8 6 5 5 6 6 6 5 6 6 6 6 7 7 7 10 15 20 22 9 7 6 6 4 5 15 16 16 13 5 10 10
8 10 10 10 10 13 13 12 12 10 8 7 6 6 6 6 5 5 6 5 5 6 6 6 7 6 7 13 17 21 19 16 7 6 5 7 14 15 15 11 13 16 12
10 10 10 10 10 13 14 14 11 9 8 7 6 6 6 5 5 5 5 4 4 4 5 5 6 6 5 9 18 20 20 20 10 6 13 15 15 13 9 12 16 12 5
12 11 11 12 13 13 13 12 9 9 9 8 7 6 5 5 5 4 4 3 3 4 4 5 6 7 6 6 7 7 8 12 10 7 10 14 13 10 11 10 8 5 5
12 12 14 15 15 14 14 11 10 10 9 8 7 6 5 4 4 4 4 4 4 5 5 4 4 6 7 10 18 13 8 8 8 8 4 3 4 4 4 4 4 4 4
13 13 15 15 15 15 14 13 11 12 10 8 7 6 4 4 4 3 4 8 8 11 12 11 10 8 12 18 19 19 19 18 17 9 5 5 5 5 5 5 5 4 4
Wind_Direction
192 178 164 156 154 159 165 159 151 78 29 16 338 323 318 306 299 295 313 325 322 319 310 308 309 310 307 306 304 306 306 304 302 307 307 299 293 300 307 321 319 314 314
188 177 167 165 167 170 165 161 158 124 44 50 300 277 284 285 283 298 329 318 309 304 309 309 306 302 302 302 302 304 300 304 310 308 309 308 304 301 315 310 309 312 318
193 179 174 174 172 170 161 167 163 189 196 329 283 300 301 300 316 331 317 301 299 299 299 298 296 296 298 296 299 297 303 306 302 291 297 302 303 307 294 301 301 304 306
192 180 176 177 173 162 146 158 179 201 204 233 275 299 299 301 303 300 290 297 301 304 301 294 294 295 292 292 296 307 299 299 301 297 282 276 288 299 303 295 293 299 302
192 178 173 172 163 149 149 166 188 207 205 222 259 274 283 287 292 296 297 303 303 299 296 295 298 295 292 290 292 296 293 293 294 295 293 289 284 283 287 298 301 298 294
184 167 158 155 151 147 154 172 195 210 206 219 250 263 279 289 298 302 303 302 296 294 295 301 299 295 292 291 292 291 293 292 294 295 291 290 286 286 284 289 295 296 295
169 160 156 160 159 160 166 179 197 212 209 218 244 259 268 276 283 292 295 297 294 294 295 305 297 294 291 292 293 295 296 295 298 297 294 289 281 278 278 283 289 291 292
170 167 166 166 166 168 173 185 197 207 209 219 241 251 263 265 268 277 282 285 285 286 289 296 294 294 295 299 298 299 299 302 303 305 303 297 287 279 275 278 286 291 292
178 172 168 168 169 172 179 185 192 204 209 220 238 249 260 267 269 276 277 276 277 288 295 294 293 294 295 295 300 298 301 303 305 307 306 303 294 283 275 275 275 280 292
182 176 174 172 171 172 174 179 191 202 208 218 234 250 253 260 266 272 273 275 280 285 289 290 291 293 296 297 300 300 303 306 306 307 308 308 305 300 289 284 278 272 276
184 180 176 172 167 165 171 183 193 200 208 217 230 252 260 264 268 269 272 277 282 286 288 290 292 294 295 298 302 304 306 306 307 310 314 313 311 311 306 296 285 278 276
180 176 171 167 169 174 179 187 193 198 206 211 225 247 258 264 267 272 278 283 285 285 285 287 290 293 298 298 303 307 308 305 306 311 312 314 316 314 311 310 303 294 292
174 173 173 176 179 182 185 189 192 196 198 204 224 248 260 266 272 278 283 285 284 284 284 285 288 290 292 293 295 295 298 299 301 305 308 311 314 313 312 312 316 314 320
179 181 184 184 184 184 186 187 191 189 191 201 223 246 258 268 275 281 283 283 283 284 284 283 284 285 287 287 286 285 287 290 294 297 301 307 310 309 312 317 318 321 321
188 190 190 187 185 184 185 185 188 185 186 200 223 243 257 270 278 283 284 284 284 287 283 283 284 284 287 286 289 277 284 284 288 293 295 302 317 325 329 329 328 329 324
199 196 192 190 189 187 186 182 184 182 180 200 224 243 259 269 275 279 279 281 281 280 281 283 286 288 292 302 307 310 286 282 282 287 291 298 309 320 329 330 333 337 333
201 196 196 195 191 187 181 180 178 169 177 203 225 240 251 260 263 273 280 280 280 281 284 284 286 286 291 303 307 312 312 290 281 278 282 296 307 319 306 319 330 332 332
201 196 192 190 183 174 168 162 160 168 186 208 225 235 242 252 260 267 274 278 279 282 283 285 286 286 292 306 310 314 315 292 284 278 274 275 281 296 310 316 320 314 317
195 189 183 178 170 166 160 154 165 177 195 213 223 229 234 247 259 268 273 276 282 284 283 285 286 287 293 305 309 314 301 293 290 286 280 286 274 299 317 323 314 312 310
175 170 165 162 165 164 156 163 179 190 206 212 218 223 229 243 255 263 272 278 281 281 285 287 286 288 290 306 314 319 309 301 296 293 290 303 307 310 320 319 308 309 308
170 162 163 170 172 163 161 177 188 203 207 203 208 218 229 240 251 262 270 276 281 286 289 292 294 296 305 316 319 321 325 315 311 306 298 291 312 320 326 331 314 313 329
173 167 170 173 167 165 170 185 200 201 191 190 201 218 231 241 249 256 267 272 282 293 296 301 303 301 308 319 320 326 331 333 322 310 299 294 314 325 331 333 327 334 340
184 177 175 172 171 174 180 192 198 185 180 184 203 220 232 239 242 249 262 275 283 288 295 301 305 308 311 316 323 326 331 333 330 314 322 325 328 333 330 326 333 341 333
190 181 175 180 184 185 190 194 184 175 174 189 205 217 226 238 246 250 250 255 266 277 287 295 301 306 309 307 309 311 317 326 324 317 320 326 329 330 329 333 337 334 326
191 185 189 193 192 186 192 190 178 170 178 191 204 213 218 226 243 250 249 258 240 253 274 264 272 296 303 308 321 329 326 324 319 329 320 315 317 318 319 323 324 325 331
190 191 196 197 191 187 191 187 178 173 179 193 202 205 207 216 228 247 274 285 283 288 292 292 295 296 305 316 326 330 333 334 338 344 329 323 323 322 324 328 327 326 328